NOAA 16 DEB, 42387

Orbit data source: Space-Track

NOAA 16 DEB, 42387 is space debris in SSO originally from a launch on Thu, 21 Sep 2000 UTC launched from the Air Force Western Test Range (AFWTR). Debris objects in space refer to the collection of defunct objects orbiting the Earth. Examples of debris include non-operational satellites, rocket bodies, and fragments generated from explosions, collisions, or faulty payload assembly.

Loading next visibility...
Identifier
42387, 2000-055SF
Orbit
SSO
Country
Flag of USUS
Related business
Manufacturer
Unknown
Mission
Spacecraft
Bus & Motor
Unknown
Mass
Unknown
Launch date (UTC)
2000-09-21 (25 years ago)
Launch vehicle
Unknown
Launch site
Air Force Western Test Range (AFWTR)
Object type
Payload
Rocket body
Debris
Shape & HBR
Unknown shape, 0.1 m
Radar Cross Section
Small (<0.1 m²)

Expand to show TLE details & history
Last TLE update: 9 hours ago

TLE from 9 hours ago
0 NOAA 16 DEB
1 42387U 00055SF  25308.05827505  .00009832  00000-0  31194-2 0  9996
2 42387  98.8300  65.8362 0014830 186.3941 173.7059 14.40140786503209
Epoch: 2025-11-04T01:23Z
TLE epoch observation values (Epoch: 2025-11-04T01:23:54.964Z)
Latitude
-0.00003°
Longitude
1.30644°
Altitude
771.493 km
Speed
7.463 km/s
True Right ascension
04h 23m 20s
True Declination
0° 00' 00"
Sunlit
Object was in full shadow at epoch
Visualization orbit readout
Latitude
Unknown
Longitude
Unknown
Altitude
Unknown
Speed
Unknown
Apparent Right ascension
Unknown
Apparent Declination
Unknown
Sunlit
N/A
Visualization observer readout
Local Sidereal Time
06:31:18
Azimuth
Unknown
Elevation
Unknown
Doppler factor
Unknown
Orbital elements
Apogee altitude
765.75 km
Perigee altitude
744.592 km
Semi-major axis
7,133.308 km
Eccentricity
0.00148
Inclination
98.83°
RAAN
65.8362°
Arg. of periapsis
186.3941°
True anomaly
173.7245°
Mean anomaly
173.7059°
Eccentric anomaly
173.7152°
Mean motion
3.60252 °/min
Orbital period
99.93 mins
BSTAR
0.0031194
Loading maneuver chart data...
Computing Atmospheric mass density...
Loading historical data...
Loading historical data...
Loading historical data...
Loading historical data...
Loading historical data...
Loading historical data...
Loading historical data...

Documentation

Showing up to 5 results
|